| time (UTC) | temp F | wind direction | speed MPH | gust MPH | rain 1hr in | rain 24hr in | rain mn in | humidity % | barometer mb |
| 20260508195517 | 55 | 0.0 | 0.0 | 0.00 | 0.00 | 0.00 | 69 | 1021.2 | |
| 20260508194537 | 56 | 0.0 | 0.0 | 0.00 | 0.00 | 0.00 | 67 | 1021.0 | |
| 20260508193517 | 57 | 0.0 | 0.0 | 0.00 | 0.00 | 0.00 | 67 | 1020.9 | |
| 20260508192537 | 58 | 0.0 | 0.0 | 0.00 | 0.00 | 0.00 | 66 | 1020.8 | |
| 20260508191517 | 59 | 0.0 | 1.0 | 0.00 | 0.00 | 0.00 | 65 | 1020.8 | |
| 20260508190517 | 60 | 0.0 | 1.0 | 0.00 | 0.00 | 0.00 | 63 | 1020.7 | |
| 20260508185517 | 61 | 0.0 | 0.0 | 0.00 | 0.00 | 0.00 | 60 | 1020.6 | |
| 20260508184515 | 61 | 0.0 | 1.0 | 0.00 | 0.00 | 0.00 | 58 | 1020.5 | |
| 20260508183517 | 62 | 0.0 | 1.0 | 0.00 | 0.00 | 0.00 | 58 | 1020.5 | |
| 20260508182517 | 62 | 225 | 1.0 | 2.0 | 0.00 | 0.00 | 0.00 | 58 | 1020.4 |
| 20260508181535 | 63 | 225 | 1.0 | 2.0 | 0.00 | 0.00 | 0.00 | 57 | 1020.3 |
| 20260508180517 | 64 | 225 | 1.0 | 2.0 | 0.00 | 0.00 | 0.00 | 55 | 1020.3 |
| 20260508175515 | 65 | 90 | 1.0 | 3.0 | 0.00 | 0.00 | 0.00 | 54 | 1020.3 |
| 20260508174515 | 66 | 225 | 1.0 | 3.0 | 0.00 | 0.00 | 0.00 | 52 | 1020.3 |
| 20260508173515 | 67 | 225 | 2.0 | 3.0 | 0.00 | 0.00 | 0.00 | 51 | 1020.2 |
| 20260508172515 | 67 | 203 | 1.0 | 3.0 | 0.00 | 0.00 | 0.00 | 52 | 1020.2 |
| 20260508171515 | 66 | 225 | 1.0 | 4.0 | 0.00 | 0.00 | 0.00 | 51 | 1020.1 |
| 20260508170515 | 67 | 225 | 2.0 | 4.0 | 0.00 | 0.00 | 0.00 | 49 | 1020.0 |
| 20260508165535 | 67 | 225 | 2.0 | 5.0 | 0.00 | 0.00 | 0.00 | 48 | 1020.0 |
| 20260508164515 | 68 | 158 | 2.0 | 4.0 | 0.00 | 0.00 | 0.00 | 48 | 1020.0 |
| 20260508163515 | 68 | 225 | 2.0 | 4.0 | 0.00 | 0.00 | 0.00 | 47 | 1020.0 |
| 20260508162535 | 69 | 203 | 2.0 | 5.0 | 0.00 | 0.00 | 0.00 | 47 | 1020.0 |
| 20260508161515 | 69 | 225 | 2.0 | 8.0 | 0.00 | 0.00 | 0.00 | 47 | 1019.9 |
| 20260508160515 | 69 | 203 | 2.0 | 4.0 | 0.00 | 0.00 | 0.00 | 47 | 1019.9 |
| 20260508155515 | 70 | 225 | 2.0 | 5.0 | 0.00 | 0.00 | 0.00 | 46 | 1019.8 |
| 20260508154515 | 71 | 203 | 2.0 | 5.0 | 0.00 | 0.00 | 0.00 | 46 | 1019.8 |
| 20260508153515 | 71 | 203 | 2.0 | 5.0 | 0.00 | 0.00 | 0.00 | 46 | 1019.9 |
| 20260508152535 | 71 | 248 | 1.0 | 4.0 | 0.00 | 0.00 | 0.00 | 45 | 1020.0 |
| 20260508151536 | 70 | 248 | 1.0 | 2.0 | 0.00 | 0.00 | 0.00 | 48 | 1019.9 |
| 20260508150515 | 70 | 225 | 1.0 | 4.0 | 0.00 | 0.00 | 0.00 | 49 | 1019.9 |
| 20260508145515 | 69 | 203 | 1.0 | 3.0 | 0.00 | 0.00 | 0.00 | 49 | 1020.0 |
| 20260508144515 | 68 | 248 | 1.0 | 3.0 | 0.00 | 0.00 | 0.00 | 53 | 1019.9 |
| 20260508143515 | 67 | 225 | 1.0 | 2.0 | 0.00 | 0.00 | 0.00 | 55 | 1020.1 |
| 20260508142515 | 67 | 248 | 2.0 | 4.0 | 0.00 | 0.00 | 0.00 | 53 | 1020.1 |
| 20260508141515 | 66 | 248 | 1.0 | 4.0 | 0.00 | 0.00 | 0.00 | 55 | 1020.2 |
| 20260508140516 | 65 | 225 | 1.0 | 4.0 | 0.00 | 0.00 | 0.00 | 59 | 1020.2 |
| 20260508135515 | 65 | 225 | 1.0 | 2.0 | 0.00 | 0.00 | 0.00 | 57 | 1020.1 |
| 20260508134515 | 65 | 293 | 1.0 | 4.0 | 0.00 | 0.00 | 0.00 | 57 | 1020.2 |
| 20260508133515 | 66 | 180 | 1.0 | 3.0 | 0.00 | 0.00 | 0.00 | 57 | 1020.3 |
| 20260508132515 | 66 | 225 | 1.0 | 3.0 | 0.00 | 0.00 | 0.00 | 58 | 1020.3 |
| 20260508131515 | 66 | 248 | 1.0 | 3.0 | 0.00 | 0.00 | 0.00 | 59 | 1020.3 |
| 20260508130515 | 66 | 225 | 2.0 | 4.0 | 0.00 | 0.00 | 0.00 | 60 | 1020.3 |
| 20260508125516 | 65 | 203 | 1.0 | 3.0 | 0.00 | 0.00 | 0.00 | 63 | 1020.3 |
| 20260508124535 | 64 | 203 | 1.0 | 3.0 | 0.00 | 0.00 | 0.00 | 63 | 1020.4 |
| 20260508123535 | 63 | 248 | 1.0 | 4.0 | 0.00 | 0.00 | 0.00 | 62 | 1020.4 |
| 20260508122515 | 63 | 225 | 1.0 | 3.0 | 0.00 | 0.00 | 0.00 | 64 | 1020.4 |
| 20260508121515 | 63 | 225 | 1.0 | 3.0 | 0.00 | 0.00 | 0.00 | 65 | 1020.5 |
| 20260508120515 | 63 | 248 | 1.0 | 2.0 | 0.00 | 0.00 | 0.00 | 66 | 1020.5 |
| 20260508115515 | 63 | 248 | 1.0 | 2.0 | 0.00 | 0.00 | 0.00 | 66 | 1020.4 |
| 20260508114515 | 63 | 0.0 | 1.0 | 0.00 | 0.00 | 0.00 | 67 | 1020.5 | |
| 20260508113515 | 63 | 248 | 1.0 | 3.0 | 0.00 | 0.00 | 0.00 | 66 | 1020.5 |
| 20260508112515 | 63 | 0.0 | 2.0 | 0.00 | 0.00 | 0.00 | 66 | 1020.5 | |
| 20260508111515 | 63 | 248 | 1.0 | 3.0 | 0.00 | 0.00 | 0.00 | 66 | 1020.6 |
| 20260508110515 | 64 | 270 | 2.0 | 5.0 | 0.00 | 0.00 | 0.00 | 65 | 1020.6 |
| 20260508105515 | 63 | 158 | 1.0 | 4.0 | 0.00 | 0.00 | 0.00 | 67 | 1020.5 |
| 20260508104515 | 64 | 225 | 1.0 | 3.0 | 0.00 | 0.00 | 0.00 | 67 | 1020.4 |
| 20260508103516 | 63 | 270 | 1.0 | 4.0 | 0.00 | 0.00 | 0.00 | 66 | 1020.4 |
| 20260508102515 | 62 | 248 | 1.0 | 4.0 | 0.00 | 0.00 | 0.00 | 68 | 1020.5 |
| 20260508101515 | 62 | 248 | 1.0 | 4.0 | 0.00 | 0.00 | 0.00 | 69 | 1020.5 |
| 20260508100515 | 61 | 225 | 2.0 | 6.0 | 0.00 | 0.00 | 0.00 | 68 | 1020.6 |
| 20260508095515 | 61 | 248 | 1.0 | 4.0 | 0.00 | 0.00 | 0.00 | 71 | 1020.6 |
| 20260508094515 | 60 | 293 | 1.0 | 4.0 | 0.00 | 0.00 | 0.00 | 73 | 1020.6 |
| 20260508093515 | 59 | 248 | 1.0 | 3.0 | 0.00 | 0.00 | 0.00 | 75 | 1020.5 |
| 20260508092515 | 58 | 248 | 1.0 | 4.0 | 0.00 | 0.00 | 0.00 | 75 | 1020.6 |
| 20260508091515 | 57 | 248 | 1.0 | 3.0 | 0.00 | 0.00 | 0.00 | 76 | 1020.5 |
| 20260508090515 | 57 | 0.0 | 2.0 | 0.00 | 0.00 | 0.00 | 76 | 1020.5 | |
| 20260508085515 | 57 | 270 | 1.0 | 4.0 | 0.00 | 0.00 | 0.00 | 77 | 1020.6 |
| 20260508084555 | 57 | 0.0 | 2.0 | 0.00 | 0.00 | 0.00 | 80 | 1020.6 | |
| 20260508083535 | 57 | 270 | 1.0 | 2.0 | 0.00 | 0.00 | 0.00 | 81 | 1020.6 |
| 20260508082515 | 57 | 248 | 2.0 | 4.0 | 0.00 | 0.00 | 0.00 | 83 | 1020.6 |
| 20260508081515 | 56 | 0.0 | 3.0 | 0.00 | 0.00 | 0.00 | 88 | 1020.6 | |
| 20260508080515 | 55 | 248 | 1.0 | 3.0 | 0.00 | 0.00 | 0.00 | 90 | 1020.5 |
| 20260508075515 | 54 | 0.0 | 1.0 | 0.00 | 0.00 | 0.00 | 93 | 1020.4 | |
| 20260508074515 | 53 | 0.0 | 2.0 | 0.00 | 0.00 | 0.00 | 95 | 1020.4 | |
| 20260508073535 | 52 | 0.0 | 0.0 | 0.00 | 0.00 | 0.00 | 96 | 1020.3 | |
| 20260508072515 | 51 | 0.0 | 0.0 | 0.00 | 0.00 | 0.00 | 96 | 1020.3 | |
| 20260508071516 | 50 | 0.0 | 0.0 | 0.00 | 0.00 | 0.00 | 96 | 1020.4 | |
| 20260508070515 | 49 | 0.0 | 0.0 | 0.00 | 0.00 | 0.00 | 96 | 1020.3 | |
| 20260508065516 | 49 | 0.0 | 0.0 | 0.00 | 0.00 | 0.00 | 96 | 1020.3 | |
| 20260508064535 | 48 | 0.0 | 0.0 | 0.00 | 0.00 | 0.00 | 95 | 1020.3 | |
| 20260508063515 | 48 | 0.0 | 0.0 | 0.00 | 0.00 | 0.00 | 95 | 1020.3 | |
| 20260508062515 | 47 | 0.0 | 0.0 | 0.00 | 0.00 | 0.00 | 96 | 1020.2 | |
| 20260508061515 | 47 | 0.0 | 0.0 | 0.00 | 0.00 | 0.00 | 95 | 1020.1 | |
| 20260508060515 | 47 | 0.0 | 0.0 | 0.00 | 0.00 | 0.00 | 95 | 1020.2 | |
| 20260508055515 | 46 | 0.0 | 0.0 | 0.00 | 0.00 | 0.00 | 95 | 1020.2 | |
| 20260508054515 | 46 | 0.0 | 0.0 | 0.00 | 0.00 | 0.00 | 95 | 1020.0 | |
| 20260508053516 | 46 | 0.0 | 0.0 | 0.00 | 0.00 | 0.00 | 95 | 1020.0 | |
| 20260508052515 | 45 | 0.0 | 0.0 | 0.00 | 0.00 | 0.00 | 95 | 1019.9 | |
| 20260508051516 | 45 | 0.0 | 0.0 | 0.00 | 0.00 | 0.00 | 95 | 1019.8 | |
| 20260508050515 | 45 | 0.0 | 0.0 | 0.00 | 0.00 | 0.00 | 95 | 1019.8 | |
| 20260508045516 | 44 | 0.0 | 0.0 | 0.00 | 0.00 | 0.00 | 95 | 1019.7 | |
| 20260508044515 | 44 | 0.0 | 0.0 | 0.00 | 0.00 | 0.00 | 95 | 1019.6 | |
| 20260508043516 | 44 | 0.0 | 0.0 | 0.00 | 0.00 | 0.00 | 95 | 1019.7 | |
| 20260508042515 | 44 | 0.0 | 0.0 | 0.00 | 0.00 | 0.00 | 94 | 1019.6 | |
| 20260508041515 | 43 | 0.0 | 0.0 | 0.00 | 0.00 | 0.00 | 94 | 1019.6 | |
| 20260508040515 | 43 | 0.0 | 0.0 | 0.00 | 0.00 | 0.00 | 94 | 1019.7 | |
| 20260508035515 | 43 | 0.0 | 0.0 | 0.00 | 0.00 | 0.00 | 94 | 1019.6 | |
| 20260508034515 | 43 | 0.0 | 0.0 | 0.00 | 0.00 | 0.00 | 94 | 1019.6 | |
| 20260508033516 | 42 | 0.0 | 0.0 | 0.00 | 0.00 | 0.00 | 94 | 1019.6 | |
| 20260508032516 | 42 | 0.0 | 0.0 | 0.00 | 0.00 | 0.00 | 94 | 1019.7 | |
| 20260508031515 | 42 | 0.0 | 0.0 | 0.00 | 0.00 | 0.00 | 94 | 1019.7 | |
| 20260508030516 | 42 | 0.0 | 0.0 | 0.00 | 0.00 | 0.00 | 94 | 1019.7 | |
| 20260508025515 | 42 | 0.0 | 0.0 | 0.00 | 0.00 | 0.00 | 94 | 1019.6 | |
| 20260508024516 | 42 | 0.0 | 0.0 | 0.00 | 0.00 | 0.00 | 94 | 1019.7 | |
| 20260508023516 | 41 | 0.0 | 0.0 | 0.00 | 0.00 | 0.00 | 94 | 1019.8 | |
| 20260508022515 | 41 | 0.0 | 0.0 | 0.00 | 0.00 | 0.00 | 94 | 1019.7 | |
| 20260508021515 | 41 | 0.0 | 0.0 | 0.00 | 0.00 | 0.00 | 94 | 1019.7 | |
| 20260508020515 | 41 | 0.0 | 0.0 | 0.00 | 0.00 | 0.00 | 93 | 1019.7 | |
| 20260508015515 | 40 | 0.0 | 0.0 | 0.00 | 0.00 | 0.00 | 93 | 1019.7 | |
| 20260508014536 | 40 | 0.0 | 0.0 | 0.00 | 0.00 | 0.00 | 93 | 1019.7 | |
| 20260508013535 | 40 | 0.0 | 0.0 | 0.00 | 0.00 | 0.00 | 92 | 1019.8 | |
| 20260508012516 | 40 | 0.0 | 0.0 | 0.00 | 0.00 | 0.00 | 92 | 1019.8 | |
| 20260508011555 | 40 | 0.0 | 0.0 | 0.00 | 0.00 | 0.00 | 92 | 1019.9 | |
| 20260508010516 | 40 | 0.0 | 0.0 | 0.00 | 0.00 | 0.00 | 92 | 1019.9 | |
| 20260508005515 | 40 | 0.0 | 0.0 | 0.00 | 0.00 | 0.00 | 92 | 1019.9 | |
| 20260508004515 | 40 | 0.0 | 0.0 | 0.00 | 0.00 | 0.00 | 91 | 1019.9 | |
| 20260508003515 | 41 | 0.0 | 0.0 | 0.00 | 0.00 | 0.00 | 91 | 1020.0 | |
| 20260508002515 | 41 | 0.0 | 0.0 | 0.00 | 0.00 | 0.00 | 91 | 1020.1 | |
| 20260508001516 | 41 | 0.0 | 0.0 | 0.00 | 0.00 | 0.00 | 91 | 1020.1 | |
| 20260508000516 | 41 | 0.0 | 0.0 | 0.00 | 0.00 | 0.00 | 91 | 1020.1 | |
| 20260507235516 | 42 | 0.0 | 0.0 | 0.00 | 0.00 | 0.00 | 90 | 1020.1 | |
| 20260507234516 | 42 | 0.0 | 0.0 | 0.00 | 0.00 | 0.00 | 90 | 1020.1 | |
| 20260507233515 | 42 | 0.0 | 0.0 | 0.00 | 0.00 | 0.00 | 90 | 1020.2 | |
| 20260507232515 | 43 | 0.0 | 0.0 | 0.00 | 0.00 | 0.00 | 90 | 1020.2 | |
| 20260507231516 | 43 | 0.0 | 0.0 | 0.00 | 0.00 | 0.00 | 89 | 1020.3 | |
| 20260507230516 | 43 | 0.0 | 0.0 | 0.00 | 0.00 | 0.00 | 90 | 1020.3 | |
| 20260507225515 | 44 | 0.0 | 0.0 | 0.00 | 0.00 | 0.00 | 89 | 1020.4 | |
| 20260507224515 | 44 | 0.0 | 0.0 | 0.00 | 0.00 | 0.00 | 89 | 1020.4 | |
| 20260507223516 | 44 | 0.0 | 0.0 | 0.00 | 0.00 | 0.00 | 89 | 1020.4 | |
| 20260507222515 | 44 | 0.0 | 0.0 | 0.00 | 0.00 | 0.00 | 89 | 1020.3 | |
| 20260507221515 | 44 | 0.0 | 0.0 | 0.00 | 0.00 | 0.00 | 87 | 1020.3 | |
| 20260507220515 | 45 | 0.0 | 0.0 | 0.00 | 0.00 | 0.00 | 87 | 1020.5 | |
| 20260507215516 | 45 | 0.0 | 0.0 | 0.00 | 0.00 | 0.00 | 87 | 1020.6 | |
| 20260507214516 | 46 | 0.0 | 0.0 | 0.00 | 0.00 | 0.00 | 87 | 1020.7 | |
| 20260507213536 | 46 | 0.0 | 0.0 | 0.00 | 0.00 | 0.00 | 86 | 1020.8 | |
| 20260507212516 | 46 | 0.0 | 0.0 | 0.00 | 0.00 | 0.00 | 85 | 1020.7 | |
| 20260507211515 | 47 | 0.0 | 0.0 | 0.00 | 0.00 | 0.00 | 85 | 1020.7 | |
| 20260507210516 | 48 | 0.0 | 0.0 | 0.00 | 0.00 | 0.00 | 84 | 1020.7 | |
| 20260507205516 | 48 | 0.0 | 0.0 | 0.00 | 0.00 | 0.00 | 84 | 1020.7 | |
| 20260507204515 | 49 | 0.0 | 0.0 | 0.00 | 0.00 | 0.00 | 83 | 1020.5 | |
| 20260507203515 | 50 | 0.0 | 0.0 | 0.00 | 0.00 | 0.00 | 82 | 1020.3 | |
| 20260507202556 | 51 | 0.0 | 0.0 | 0.00 | 0.00 | 0.00 | 81 | 1020.2 | |
| 20260507201515 | 52 | 0.0 | 0.0 | 0.00 | 0.00 | 0.00 | 80 | 1020.1 | |
| 20260507200516 | 53 | 0.0 | 0.0 | 0.00 | 0.00 | 0.00 | 79 | 1019.9 |